Regional Weather Roundup
Issued by NWS

Home | Current Version | Previous Version | Text Only | Print | Product List | Glossary Off
Versions: 1 2 3 4 5 6 7 8 9 10 11 12 13 14 15 16 17 18 19 20 21 22 23 24 25 26 27 28 29 30 31 32 33 34 35 36 37 38 39 40 41 42 43 44 45 46 47 48 49 50

805
ASUS43 KTOP 290708
RWRKS

WEATHER ROUNDUP FOR KANSAS
NATIONAL WEATHER SERVICE GOODLAND KS
200 AM CDT FRI APR 29 2016

NOTE:  "FAIR" INDICATES FEW OR NO CLOUDS BELOW 12,000 FEET WITH NO
SIGNIFICANT WEATHER AND/OR OBSTRUCTIONS TO VISIBILITY.

KSZ001>006-013>018-027>032-041>047-290800-
NORTHWEST KANSAS

CITY           SKY/WX    TMP DP  RH WIND       PRES   REMARKS
GOODLAND       CLOUDY    41  39  93 E12       30.06R
HAYS           CLOUDY    46  37  71 NE13      30.07F
HILL CITY      CLOUDY    47  43  86 NE5       30.09F
RUSSELL        CLOUDY    48  43  82 NE12      30.05S
$$

KSZ061>065-074>080-084>089-290800-
SOUTHWEST KANSAS

CITY           SKY/WX    TMP DP  RH WIND       PRES   REMARKS
DODGE CITY     LGT RAIN  48  45  89 NE23G29   29.94F FOG
ELKHART          N/A     42  39  89 N12         N/A
GARDEN CITY    RAIN      45  43  93 NE20      29.99S FOG
GREAT BEND     CLOUDY    50  39  66 NE16G24   30.03F
LIBERAL        CLOUDY    48  43  81 N10       29.93F
PRATT          LGT RAIN  47  47  97 NE17      29.97F
$$

KSZ066>073-081>083-090>101-290800-
SOUTHEAST KANSAS

CITY           SKY/WX    TMP DP  RH WIND       PRES   REMARKS
CHANUTE        CLOUDY    55  46  71 NE14      30.03S
COFFEYVILLE    CLOUDY    58  51  78 N13       29.99R
HUTCHINSON     LGT RAIN  51  48  89 NE10G21   30.02F
MEDICINE LODGE   N/A     53  50  89 NE15G22   29.95F
NEWTON         CLOUDY    48  43  81 NE10      30.05S
PARSONS        CLOUDY    56  51  84 N10       30.02R
WICHITA INTL   CLOUDY    55  48  77 NE15      30.02R
WICHITA JABRA  CLOUDY    52  48  86 NE15      30.02R
WICHITA MCCONL CLOUDY    54  49  83 NE16G24   30.02F
WINFIELD       CLOUDY    57  48  72 NE15      30.00S
$$

KSZ007>012-019>026-033>040-048>060-102>105-290800-
NORTHEAST KANSAS

CITY           SKY/WX    TMP DP  RH WIND       PRES   REMARKS
CONCORDIA      CLOUDY    48  42  80 NE9       30.10S
EMPORIA        LGT RAIN  51  45  79 NE12      30.06F
LAWRENCE       CLOUDY    51  45  79 N9        30.09S
MANHATTAN      LGT RAIN  52  44  74 E9        30.10S
MARYSVILLE     CLOUDY    46  43  87 NE5       30.12R
OLATHE IND     MOCLDY    50  46  86 N12       30.08F
OLATHE EXE     MOCLDY    51  45  79 N7        30.09R
SALINA         CLOUDY    52  45  77 NE7       30.07R
TOPEKA BILLARD LGT RAIN  50  45  83 CALM      30.11R
TOPEKA FORBES  LGT RAIN  51  45  79 N7        30.10R
$$




USA.gov is the U.S. government's official web portal to all federal, state and local government web resources and services.